This demonstration page uses our WeatherBlox Daily Observations layout. Learn more.

Left ArrowRight Arrow

Hourly Observations for June 11, 2019

Temp ( °F °C ) Dew Point ( °F °C ) Humidity (%) Winds ( mph kmh ) Pressure ( in mb ) Visibility ( mi km ) Precip ( " mm )
12:53 am 00:53 Cloudy 60 15.6 42 5.6 52 52 WNW 5 7 30.07 1018 10 16 0.00 0.00
1:53 am 01:53 Mostly Cloudy 56 13.3 44 6.7 65 65 SW 5 7 30.08 1019 10 16 0.00 0.00
2:53 am 02:53 Clear 55 12.8 44 6.7 67 67 WNW 5 7 30.09 1019 10 16 0.00 0.00
3:53 am 03:53 Mostly Clear 49 9.4 43 6.1 80 80 Calm 30.12 1020 10 16 0.00 0.00
4:53 am 04:53 Mostly Cloudy 50 10 43 6.1 77 77 SW 7 11 30.15 1021 10 16 0.00 0.00
5:53 am 05:53 Partly Cloudy 50 10 43 6.1 77 77 WSW 7 11 30.18 1022 10 16 0.00 0.00
6:53 am 06:53 Cloudy 54 12.2 41 5 62 62 WNW 6 9 30.19 1022 10 16 0.00 0.00
7:53 am 07:53 Partly Cloudy 57 13.9 44 6.7 62 62 W 9 15 30.20 1023 10 16 0.00 0.00
8:53 am 08:53 Cloudy 61 16.1 44 6.7 54 54 NW 8 13 30.21 1023 10 16 0.00 0.00
9:53 am 09:53 Mostly Cloudy 63 17.2 45 7.2 52 52 NW 12 19 30.22 1023 10 16 0.00 0.00
10:53 am 10:53 Mostly Cloudy 67 19.4 42 5.6 41 41 NW 15 24 30.22 1023 10 16 0.00 0.00
11:53 am 11:53 Partly Cloudy 70 21.1 41 5 35 35 NNW 16 26 30.21 1023 10 16 0.00 0.00
12:53 pm 12:53 Mostly Sunny 72 22.2 42 5.6 34 34 WNW 13 20 30.20 1023 10 16 0.00 0.00
1:53 pm 13:53 Partly Cloudy 72 22.2 40 4.4 31 31 NNW 14 22 30.20 1023 10 16 0.00 0.00
2:53 pm 14:53 Mostly Cloudy 71 21.7 38 3.3 30 30 NNW 16 26 30.19 1023 10 16 0.00 0.00
3:53 pm 15:53 Mostly Cloudy 76 24.4 38 3.3 25 25 NW 14 22 30.19 1023 10 16 0.00 0.00
4:53 pm 16:53 Partly Cloudy 75 23.9 37 2.8 25 25 NNW 16 26 30.19 1022 10 16 0.00 0.00
5:53 pm 17:53 Mostly Cloudy 73 22.8 37 2.8 27 27 NNW 12 19 30.19 1022 10 16 0.00 0.00
6:53 pm 18:53 Cloudy 72 22.2 38 3.3 29 29 NNW 9 15 30.18 1022 10 16 0.00 0.00
7:53 pm 19:53 Mostly Cloudy 73 22.8 39 3.9 29 29 NNW 7 11 30.17 1022 10 16 0.00 0.00
8:53 pm 20:53 Mostly Sunny 68 20 41 5 38 38 N 5 7 30.17 1022 10 16 0.00 0.00
9:53 pm 21:53 Clear 56 13.3 44 6.7 65 65 S 3 6 30.19 1022 10 16 0.00 0.00
10:53 pm 22:53 Partly Cloudy 53 11.7 43 6.1 69 69 S 10 17 30.20 1023 10 16 0.00 0.00
11:53 pm 23:53 Clear 51 10.6 43 6.1 74 74 WSW 3 6 30.20 1023 10 16 0.00 0.00

Powered by AerisWeather